TimeCST,TemperatureF,Dew PointF,Humidity,Sea Level PressureIn,VisibilityMPH,Wind Direction,Wind SpeedMPH,Gust SpeedMPH,PrecipitationIn,Events,Conditions,WindDirDegrees,DateUTC
12:53 AM,27.0,17.1,66,30.27,10.0,SSE,8.1,-,N/A,,Clear,150,2013-01-22 06:53:00
1:53 AM,25.0,17.1,72,30.27,10.0,SSE,6.9,-,N/A,,Clear,160,2013-01-22 07:53:00
2:53 AM,25.0,16.0,69,30.27,10.0,North,-9999.0,-,N/A,,Clear,0,2013-01-22 08:53:00
3:53 AM,24.1,16.0,71,30.27,10.0,South,9.2,-,N/A,,Clear,180,2013-01-22 09:53:00
4:53 AM,28.0,18.0,66,30.25,10.0,South,12.7,-,N/A,,Clear,190,2013-01-22 10:53:00
5:53 AM,26.1,18.0,71,30.25,10.0,South,12.7,-,N/A,,Clear,190,2013-01-22 11:53:00
6:53 AM,27.0,18.0,69,30.25,10.0,SSW,15.0,-,N/A,,Clear,200,2013-01-22 12:53:00
7:53 AM,26.1,18.0,71,30.26,10.0,South,12.7,-,N/A,,Clear,190,2013-01-22 13:53:00
8:53 AM,30.0,19.0,64,30.24,10.0,South,15.0,-,N/A,,Clear,190,2013-01-22 14:53:00
9:53 AM,35.1,21.0,57,30.25,10.0,South,12.7,-,N/A,,Clear,190,2013-01-22 15:53:00
10:53 AM,43.0,23.0,45,30.26,10.0,South,18.4,-,N/A,,Clear,190,2013-01-22 16:53:00
11:53 AM,48.0,25.0,41,30.23,10.0,SSW,17.3,-,N/A,,Clear,200,2013-01-22 17:53:00
12:53 PM,53.1,27.0,37,30.18,10.0,SSW,18.4,-,N/A,,Clear,210,2013-01-22 18:53:00
1:53 PM,55.9,28.9,36,30.17,10.0,SSW,13.8,24.2,N/A,,Clear,210,2013-01-22 19:53:00
2:53 PM,59.0,30.9,35,30.14,10.0,SSW,15.0,-,N/A,,Clear,200,2013-01-22 20:53:00
3:53 PM,60.1,30.9,33,30.14,10.0,SSW,12.7,-,N/A,,Clear,200,2013-01-22 21:53:00
4:53 PM,59.0,33.1,38,30.14,10.0,SSW,12.7,-,N/A,,Clear,200,2013-01-22 22:53:00
5:53 PM,48.9,33.1,54,30.15,10.0,South,10.4,-,N/A,,Clear,180,2013-01-22 23:53:00
6:53 PM,46.0,32.0,58,30.18,10.0,South,8.1,-,N/A,,Clear,170,2013-01-23 00:53:00
7:53 PM,39.9,30.9,70,30.19,10.0,South,10.4,-,N/A,,Clear,180,2013-01-23 01:53:00
8:53 PM,41.0,33.1,73,30.19,10.0,South,9.2,-,N/A,,Clear,180,2013-01-23 02:53:00
9:53 PM,37.0,32.0,82,30.20,10.0,South,10.4,-,N/A,,Clear,170,2013-01-23 03:53:00
10:53 PM,37.0,32.0,82,30.21,10.0,South,11.5,-,N/A,,Clear,170,2013-01-23 04:53:00
11:53 PM,37.9,33.1,83,30.22,10.0,ENE,4.6,-,N/A,,Clear,60,2013-01-23 05:53:00